OE3MNS-12 Weather Reports


time (UTC)temp
C
wind
direction
speed
KPH
gust
KPH
rain 1hr
cm
rain 24hr
cm
rain mn
cm
humidity
%
barometer
mb
20260507185517 16 227 4.8 12.9 0.00 0.00 0.00 53 1014.8
20260507184520 16 227 6.4 14.5 0.00 0.00 0.00 53 1014.6
20260507183520 17 235 8.0 17.7 0.00 0.00 0.00 52 1014.5
20260507182519 17 233 6.4 17.7 0.00 0.00 0.00 52 1014.5
20260507181521 17 224 4.8 11.3 0.00 0.00 0.00 51 1014.2
20260507180521 17 226 6.4 14.5 0.00 0.00 0.00 50 1014.2
20260507175519 17 226 6.4 14.5 0.00 0.00 0.00 50 1014.1
20260507174542 17 211 6.4 14.5 0.00 0.00 0.00 50 1014.0
20260507173521 17 220 6.4 12.9 0.00 0.00 0.00 49 1013.9
20260507172518 18 218 6.4 20.9 0.00 0.00 0.00 48 1013.8
20260507171519 18 220 6.4 16.1 0.00 0.00 0.00 47 1013.7
20260507170518 18 215 4.8 12.9 0.00 0.00 0.00 47 1013.5
20260507165518 18 228 4.8 12.9 0.00 0.00 0.00 46 1013.5
20260507164522 18 220 6.4 14.5 0.00 0.00 0.00 46 1013.4
20260507163537 18 231 8.0 24.1 0.00 0.00 0.00 45 1013.3
20260507162540 18 235 8.0 20.9 0.00 0.00 0.00 47 1013.2
20260507161522 18 230 6.4 20.9 0.00 0.00 0.00 50 1013.1
20260507160517 18 248 8.0 24.1 0.00 0.00 0.00 48 1013.1
20260507155540 18 238 4.8 11.3 0.00 0.00 0.00 50 1013.1
20260507154523 19 193 3.2 11.3 0.00 0.00 0.00 46 1013.1
20260507153520 20 319 4.8 12.9 0.00 0.00 0.00 41 1013.1
20260507152520 20 233 4.8 11.3 0.00 0.00 0.00 40 1012.8
20260507151517 20 215 6.4 14.5 0.00 0.00 0.00 40 1012.8
20260507150520 20 209 6.4 14.5 0.00 0.00 0.00 39 1012.8
20260507145520 20 218 6.4 12.9 0.00 0.00 0.00 40 1012.7
20260507144517 21 213 4.8 14.5 0.00 0.00 0.00 39 1012.7
20260507143539 21 205 9.7 24.1 0.00 0.00 0.00 37 1012.6
20260507142522 21 202 8.0 20.9 0.00 0.00 0.00 36 1012.7
20260507141559 21 228 4.8 11.3 0.00 0.00 0.00 37 1012.5
20260507140521 22 259 4.8 9.7 0.00 0.00 0.00 37 1012.6
20260507135521 22 243 6.4 16.1 0.00 0.00 0.00 37 1012.5
20260507134539 22 223 4.8 12.9 0.00 0.00 0.00 36 1012.6
20260507133520 21 199 6.4 14.5 0.00 0.00 0.00 36 1012.7
20260507132523 21 216 3.2 6.4 0.00 0.00 0.00 36 1012.8
20260507131518 21 201 8.0 14.5 0.00 0.00 0.00 35 1012.9
20260507130543 22 238 8.0 14.5 0.00 0.00 0.00 34 1012.9
20260507125521 22 186 8.0 17.7 0.00 0.00 0.00 34 1013.0
20260507124520 22 193 6.4 14.5 0.00 0.00 0.00 37 1012.9
20260507123520 22 233 8.0 20.9 0.00 0.00 0.00 37 1013.2
20260507122518 22 229 6.4 11.3 0.00 0.00 0.00 36 1013.2
20260507121518 21 245 8.0 17.7 0.00 0.00 0.00 37 1013.2
20260507120540 21 239 6.4 17.7 0.00 0.00 0.00 37 1013.3
20260507115518 21 244 8.0 24.1 0.00 0.00 0.00 37 1013.4
20260507114519 21 250 9.7 20.9 0.00 0.00 0.00 40 1013.4
20260507113603 20 206 4.8 16.1 0.00 0.00 0.00 42 1013.6
20260507112517 19 252 11.3 17.7 0.00 0.00 0.00 43 1013.7
20260507111519 18 240 6.4 16.1 0.00 0.00 0.00 44 1013.9
20260507110523 18 248 9.7 17.7 0.00 0.00 0.00 44 1013.9
20260507105518 18 250 9.7 22.5 0.00 0.00 0.00 45 1014.0
20260507104520 18 251 9.7 22.5 0.00 0.00 0.00 46 1014.0
20260507103538 18 235 8.0 16.1 0.00 0.00 0.00 46 1014.2
20260507102520 18 249 8.0 20.9 0.00 0.00 0.00 46 1014.3
20260507101520 18 253 11.3 17.7 0.00 0.00 0.00 49 1014.3
20260507100519 18 240 6.4 16.1 0.00 0.00 0.00 49 1014.4
20260507095518 18 249 11.3 24.1 0.00 0.00 0.00 49 1014.3
20260507094541 18 244 12.9 33.8 0.00 0.00 0.00 48 1014.2
20260507093519 18 243 9.7 22.5 0.00 0.00 0.00 48 1014.2
20260507092519 18 239 8.0 20.9 0.00 0.00 0.00 47 1014.2
20260507091521 18 253 11.3 22.5 0.00 0.00 0.00 49 1014.1
20260507090522 17 244 11.3 27.4 0.00 0.00 0.00 49 1014.1
20260507085541 17 251 12.9 25.7 0.00 0.00 0.00 51 1013.9
20260507084521 16 241 14.5 35.4 0.00 0.00 0.00 51 1013.9
20260507083517 17 256 12.9 29.0 0.00 0.00 0.00 52 1013.9
20260507082521 16 237 14.5 29.0 0.00 0.00 0.00 51 1013.6
20260507081516 16 241 12.9 25.7 0.00 0.00 0.00 53 1013.6
20260507080520 16 243 16.1 40.2 0.00 0.00 0.00 54 1013.6
20260507075520 16 236 16.1 37.0 0.00 0.00 0.00 54 1013.7
20260507074537 16 251 19.3 35.4 0.00 0.00 0.00 55 1013.6
20260507073519 16 248 20.9 35.4 0.00 0.00 0.00 55 1013.5
20260507072522 16 249 17.7 37.0 0.00 0.00 0.00 55 1013.4
20260507071537 15 255 14.5 33.8 0.00 0.00 0.00 57 1013.1
20260507070519 16 246 12.9 27.4 0.00 0.00 0.00 56 1013.1
20260507065520 15 252 19.3 33.8 0.00 0.00 0.00 57 1013.2
20260507064520 15 252 19.3 33.8 0.00 0.00 0.00 59 1013.2
20260507063539 15 254 16.1 35.4 0.00 0.00 0.00 61 1013.2
20260507062520 14 243 11.3 25.7 0.00 0.00 0.00 63 1013.2
20260507061542 13 252 12.9 24.1 0.00 0.00 0.00 63 1013.1
20260507060519 13 250 14.5 25.7 0.00 0.00 0.00 64 1013.0
20260507055539 14 251 12.9 24.1 0.00 0.00 0.00 64 1012.9
20260507054520 14 250 17.7 25.7 0.00 0.00 0.00 63 1013.0
20260507053539 13 247 9.7 20.9 0.00 0.00 0.00 64 1012.9
20260507052519 13 246 6.4 12.9 0.00 0.00 0.00 65 1012.9
20260507051523 13 249 9.7 20.9 0.00 0.00 0.00 65 1012.7
20260507050519 13 240 11.3 17.7 0.00 0.00 0.00 66 1012.7
20260507045520 13 247 8.0 17.7 0.00 0.00 0.00 66 1012.5
20260507044518 13 238 6.4 14.5 0.00 0.00 0.00 66 1012.5
20260507043519 13 248 9.7 20.9 0.00 0.00 0.00 66 1012.3
20260507042520 13 245 8.0 16.1 0.00 0.00 0.00 66 1012.2
20260507041519 13 246 9.7 17.7 0.00 0.00 0.00 65 1012.0
20260507040521 13 246 8.0 17.7 0.00 0.00 0.00 65 1012.0
20260507035521 13 239 8.0 14.5 0.00 0.00 0.00 65 1011.8
20260507034519 13 248 11.3 25.7 0.00 0.00 0.00 64 1011.8
20260507033521 13 252 11.3 20.9 0.00 0.00 0.00 64 1011.6
20260507032521 13 253 16.1 25.7 0.00 0.00 0.00 64 1011.5
20260507031518 13 258 16.1 29.0 0.00 0.00 0.00 65 1011.5
20260507030521 13 249 12.9 24.1 0.00 0.00 0.00 64 1011.3
20260507030022 13 241 12.9 27.4 0.00 0.00 0.00 64 1011.3
20260507025018 14 242 11.3 25.7 0.00 0.00 0.00 64 1011.2
20260507024019 14 230 9.7 17.7 0.00 0.00 0.00 63 1011.0
20260507023020 14 230 11.3 35.4 0.00 0.00 0.00 63 1011.1
20260507022017 14 241 8.0 17.7 0.00 0.00 0.00 64 1011.0
20260507021039 14 232 11.3 29.0 0.00 0.00 0.00 64 1010.9
20260507020106 14 239 9.7 27.4 0.00 0.00 0.00 65 1010.8
20260507015017 14 220 8.0 20.9 0.00 0.00 0.00 65 1010.8
20260507014019 14 231 9.7 22.5 0.00 0.00 0.00 65 1010.9
20260507013023 14 216 6.4 14.5 0.00 0.00 0.00 66 1010.7
20260507012017 14 213 9.7 22.5 0.00 0.00 0.00 67 1010.5
20260507011020 15 222 8.0 22.5 0.00 0.00 0.00 67 1010.4
20260507010017 15 235 8.0 20.9 0.00 0.00 0.00 67 1010.2
20260507005019 15 228 8.0 17.7 0.00 0.00 0.00 67 1010.3
20260507004021 15 241 12.9 24.1 0.00 0.00 0.00 66 1010.2
20260507003022 15 248 11.3 24.1 0.00 0.00 0.00 66 1010.3
20260507002020 15 233 8.0 17.7 0.00 0.00 0.00 66 1010.2
20260507001020 15 223 11.3 29.0 0.00 0.00 0.00 66 1009.9
20260507000016 15 242 11.3 27.4 0.00 0.00 0.00 67 1009.8
20260506235018 15 244 11.3 25.7 0.00 0.00 0.00 66 1009.6
20260506234042 15 237 11.3 25.7 0.00 0.00 0.00 66 1009.5
20260506233016 16 233 9.7 20.9 0.00 0.00 0.00 66 1009.6
20260506232018 16 240 8.0 17.7 0.00 0.00 0.00 67 1009.5
20260506231021 16 242 11.3 22.5 0.00 0.00 0.00 67 1009.1
20260506230017 16 248 17.7 38.6 0.00 0.00 0.00 67 1009.1
20260506225019 16 236 17.7 33.8 0.00 0.00 0.00 67 1008.7
20260506224021 16 245 22.5 48.3 0.00 0.00 0.00 67 1008.6
20260506223018 16 248 14.5 29.0 0.00 0.00 0.00 64 1008.7
20260506222021 16 256 16.1 30.6 0.00 0.00 0.00 62 1008.3
20260506221016 17 248 20.9 35.4 0.00 0.00 0.00 62 1007.9
20260506220020 17 243 14.5 37.0 0.00 0.00 0.00 60 1007.7
20260506215021 17 224 9.7 20.9 0.00 0.00 0.00 58 1007.4
20260506214017 17 223 9.7 30.6 0.00 0.00 0.00 57 1007.2
20260506213020 18 226 8.0 17.7 0.00 0.00 0.00 55 1007.0
20260506212020 18 227 9.7 24.1 0.00 0.00 0.00 51 1006.8
20260506211018 18 228 6.4 17.7 0.00 0.00 0.00 52 1006.5
20260506210019 18 205 4.8 11.3 0.00 0.00 0.00 52 1006.2
20260506205020 18 197 4.8 14.5 0.00 0.00 0.00 52 1006.1
20260506204018 18 194 3.2 6.4 0.00 0.00 0.00 51 1005.9
20260506203019 18 195 1.6 4.8 0.00 0.00 0.00 51 1005.8
20260506202043 18 194 4.8 11.3 0.00 0.00 0.00 51 1005.6
20260506201019 18 200 3.2 6.4 0.00 0.00 0.00 50 1005.5
20260506200019 19 197 3.2 6.4 0.00 0.00 0.00 51 1005.4
20260506195016 19 171 1.6 9.7 0.00 0.00 0.00 50 1005.3
20260506194018 20 179 3.2 6.4 0.00 0.00 0.00 49 1005.2
20260506193040 20 196 3.2 6.4 0.00 0.00 0.00 48 1005.0
20260506192057 20 160 6.4 14.5 0.00 0.00 0.00 47 1004.8
20260506191020 20 165 3.2 6.4 0.00 0.00 0.00 46 1004.7